Radiation Dose measured at exhaust stack monitor of Fukushima Daiichi Nuclear Power Station
Date,Time,Unit 5 6 shared exhaust cylinders,Wind Direction,Wind Velocity(m/s)
2023/07/18,00:00,3.6,west-southwest,2.0
2023/07/18,00:10,3.7,west,1.5
2023/07/18,00:20,3.7,west-northwest,0.6
2023/07/18,00:30,3.6,west-southwest,0.6
2023/07/18,00:40,3.7,northwest,0.6
2023/07/18,00:50,3.7,west-southwest,0.9
2023/07/18,01:00,3.7,southwest,3.2
2023/07/18,01:10,3.6,southwest,3.2
2023/07/18,01:20,3.6,south-southwest,2.3
2023/07/18,01:30,3.8,southwest,2.0
2023/07/18,01:40,3.5,south-southwest,2.6
2023/07/18,01:50,3.7,southwest,1.5
2023/07/18,02:00,3.7,southwest,1.7
2023/07/18,02:10,3.7,west-southwest,3.1
2023/07/18,02:20,3.7,west,2.3
2023/07/18,02:30,3.5,west,2.3
2023/07/18,02:40,3.6,west-southwest,3.8
2023/07/18,02:50,3.5,southwest,3.1
2023/07/18,03:00,3.6,west-southwest,3.0
2023/07/18,03:10,3.7,west-southwest,2.6
2023/07/18,03:20,3.6,west-southwest,3.5
2023/07/18,03:30,3.6,west-southwest,4.0
2023/07/18,03:40,3.6,southwest,4.1
2023/07/18,03:50,3.7,west-southwest,5.8
2023/07/18,04:00,3.6,west-southwest,6.3
2023/07/18,04:10,3.7,west,3.5
2023/07/18,04:20,3.7,west,1.5
2023/07/18,04:30,3.7,west-northwest,3.3
2023/07/18,04:40,3.7,west,2.3
2023/07/18,04:50,3.6,northwest,0.8
2023/07/18,05:00,3.5,east-northeast,0.9
2023/07/18,05:10,3.7,north,1.9
2023/07/18,05:20,3.6,northwest,1.5
2023/07/18,05:30,3.6,northwest,1.5
2023/07/18,05:40,3.6,north,1.5
2023/07/18,05:50,3.7,north,2.3
2023/07/18,06:00,3.5,north-northwest,1.9
2023/07/18,06:10,3.7,north,2.2
2023/07/18,06:20,3.7,north,2.5
2023/07/18,06:30,3.5,north,2.3
2023/07/18,06:40,3.7,north-northwest,3.6
2023/07/18,06:50,3.6,northwest,4.2
2023/07/18,07:00,3.5,north-northwest,3.6
2023/07/18,07:10,3.8,northwest,3.8
2023/07/18,07:20,3.6,west-northwest,1.5
2023/07/18,07:30,3.6,west-northwest,1.5
2023/07/18,07:40,3.5,west-northwest,1.9
2023/07/18,07:50,3.9,north-northwest,3.5
2023/07/18,08:00,3.6,north-northwest,2.6
2023/07/18,08:10,3.5,north-northeast,2.6
2023/07/18,08:20,3.8,north-northeast,2.9
2023/07/18,08:30,3.5,northeast,2.2
2023/07/18,08:40,3.8,east-southeast,1.7
2023/07/18,08:50,3.5,southeast,2.0
2023/07/18,09:00,3.6,southeast,2.2
2023/07/18,09:10,3.6,southeast,2.8
2023/07/18,09:20,3.6,southeast,2.8
2023/07/18,09:30,3.5,southeast,3.0
2023/07/18,09:40,3.6,southeast,2.2
2023/07/18,09:50,3.8,southeast,1.7
2023/07/18,10:00,3.5,southeast,2.3
2023/07/18,10:10,3.5,southeast,2.6
2023/07/18,10:20,3.7,southeast,2.3
2023/07/18,10:30,3.6,southeast,3.7
2023/07/18,10:40,3.6,southeast,3.7
2023/07/18,10:50,3.6,southeast,3.7
2023/07/18,11:00,3.6,southeast,3.6
2023/07/18,11:10,3.6,southeast,5.0
2023/07/18,11:20,3.5,southeast,4.3
2023/07/18,11:30,3.5,south-southeast,3.9
2023/07/18,11:40,3.4,south-southeast,4.5
2023/07/18,11:50,3.6,southeast,4.3
2023/07/18,12:00,3.6,south-southeast,4.7
2023/07/18,12:10,3.5,south-southeast,5.2
2023/07/18,12:20,3.3,south-southeast,5.0
2023/07/18,12:30,3.7,southeast,5.3
2023/07/18,12:40,3.7,southeast,4.7
2023/07/18,12:50,3.7,southeast,5.3
2023/07/18,13:00,3.6,southeast,5.7
2023/07/18,13:10,3.6,southeast,5.9
2023/07/18,13:20,3.6,southeast,2.9
2023/07/18,13:30,3.7,east-southeast,1.7
2023/07/18,13:40,3.7,west,4.2
2023/07/18,13:50,3.6,west,4.7
2023/07/18,14:00,3.6,west,5.6
2023/07/18,14:10,3.5,west-northwest,3.0
2023/07/18,14:20,3.6,west-southwest,2.8
2023/07/18,14:30,3.7,west,2.3
2023/07/18,14:40,3.6,west-southwest,3.8
2023/07/18,14:50,3.7,west-southwest,4.5
2023/07/18,15:00,3.8,west-southwest,4.8
2023/07/18,15:10,3.6,southwest,5.3
2023/07/18,15:20,3.6,southwest,5.0
2023/07/18,15:30,3.7,west-southwest,3.3
2023/07/18,15:40,3.6,west-southwest,4.2
2023/07/18,15:50,3.6,southwest,3.1
2023/07/18,16:00,3.7,west-southwest,2.6
2023/07/18,16:10,3.6,west,2.6
2023/07/18,16:20,3.6,west,2.5
2023/07/18,16:30,3.5,west-southwest,2.0
2023/07/18,16:40,3.7,west-southwest,1.9
2023/07/18,16:50,3.7,west,1.4
2023/07/18,17:00,3.6,southwest,1.2
2023/07/18,17:10,3.7,southwest,1.7
2023/07/18,17:20,3.7,southwest,2.0
2023/07/18,17:30,3.6,southwest,1.4
2023/07/18,17:40,3.5,south-southwest,2.0
2023/07/18,17:50,3.6,south,2.5
2023/07/18,18:00,3.5,south,2.6
2023/07/18,18:10,3.6,south-southwest,2.3
2023/07/18,18:20,3.9,south-southwest,2.6
2023/07/18,18:30,3.6,south-southwest,3.2
2023/07/18,18:40,3.6,south-southwest,3.3
2023/07/18,18:50,3.6,south-southwest,3.2
2023/07/18,19:00,3.5,southwest,3.1
2023/07/18,19:10,3.6,southwest,3.2
2023/07/18,19:20,3.5,south-southwest,3.4
2023/07/18,19:30,3.6,southwest,3.5
2023/07/18,19:40,3.6,southwest,3.5
2023/07/18,19:50,3.7,west-southwest,2.3
2023/07/18,20:00,3.6,west,2.2
2023/07/18,20:10,3.4,west,2.2
2023/07/18,20:20,3.5,west-southwest,1.7
2023/07/18,20:30,3.7,west,1.5
2023/07/18,20:40,3.5,west-northwest,1.2
2023/07/18,20:50,3.5,northwest,0.6
2023/07/18,21:00,3.6,west-northwest,1.4
2023/07/18,21:10,3.8,southwest,1.2
2023/07/18,21:20,3.6,west-southwest,0.9
2023/07/18,21:30,3.6,north,2.6
2023/07/18,21:40,3.6,north,3.7
2023/07/18,21:50,3.5,north,4.0
2023/07/18,22:00,3.7,north,5.0
2023/07/18,22:10,3.7,north,5.8
2023/07/18,22:20,3.5,north,6.7
2023/07/18,22:30,3.4,north,6.2
2023/07/18,22:40,3.5,north,5.9
2023/07/18,22:50,3.6,north,4.8
2023/07/18,23:00,3.7,north-northwest,3.7
2023/07/18,23:10,3.8,north,4.0
2023/07/18,23:20,3.7,north-northwest,3.3
2023/07/18,23:30,3.6,north,3.1
2023/07/18,23:40,3.7,north,3.4
2023/07/18,23:50,3.6,north,3.0
